<?xml version="1.0"?>
<gpx xmlns="http://www.topografix.com/GPX/1/1" xmlns:xsi="http://www.w3.org/2001/XMLSchema-instance" version="1.1" creator="GPX RubyGem 1.0.0 -- http://dougfales.github.io/gpx/" xsi:schemaLocation="http://www.topografix.com/GPX/1/1 http://www.topografix.com/GPX/1/1/gpx.xsd">
  <metadata>
    <name/>
    <time>2026-05-10T13:51:44+00:00</time>
    <bound minlat="90.0" minlon="180.0" maxlat="-90.0" maxlon="-180.0"/>
  </metadata>
  <trk>
    <name/>
    <trkseg>
      <trkpt lat="51.57411" lon="7.398866">
        <time>1970-01-01T00:00:00+00:00</time>
        <ele>67.0</ele>
      </trkpt>
      <trkpt lat="51.574125" lon="7.399052">
        <time>1970-01-01T00:00:00+00:00</time>
        <ele>67.0</ele>
      </trkpt>
      <trkpt lat="51.574199" lon="7.399177">
        <time>1970-01-01T00:00:00+00:00</time>
        <ele>67.0</ele>
      </trkpt>
      <trkpt lat="51.574231" lon="7.399251">
        <time>1970-01-01T00:00:00+00:00</time>
        <ele>67.0</ele>
      </trkpt>
      <trkpt lat="51.574399" lon="7.399394">
        <time>1970-01-01T00:00:00+00:00</time>
        <ele>66.0</ele>
      </trkpt>
      <trkpt lat="51.574458" lon="7.39947">
        <time>1970-01-01T00:00:00+00:00</time>
        <ele>65.0</ele>
      </trkpt>
      <trkpt lat="51.574552" lon="7.399701">
        <time>1970-01-01T00:00:00+00:00</time>
        <ele>64.0</ele>
      </trkpt>
      <trkpt lat="51.574626" lon="7.399978">
        <time>1970-01-01T00:00:00+00:00</time>
        <ele>64.0</ele>
      </trkpt>
      <trkpt lat="51.574743" lon="7.400526">
        <time>1970-01-01T00:00:00+00:00</time>
        <ele>64.0</ele>
      </trkpt>
      <trkpt lat="51.574761" lon="7.400866">
        <time>1970-01-01T00:00:00+00:00</time>
        <ele>64.0</ele>
      </trkpt>
      <trkpt lat="51.574784" lon="7.401036">
        <time>1970-01-01T00:00:00+00:00</time>
        <ele>64.0</ele>
      </trkpt>
      <trkpt lat="51.574847" lon="7.401142">
        <time>1970-01-01T00:00:00+00:00</time>
        <ele>64.0</ele>
      </trkpt>
      <trkpt lat="51.574888" lon="7.401216">
        <time>1970-01-01T00:00:00+00:00</time>
        <ele>65.0</ele>
      </trkpt>
      <trkpt lat="51.575305" lon="7.400933">
        <time>1970-01-01T00:00:00+00:00</time>
        <ele>68.0</ele>
      </trkpt>
      <trkpt lat="51.575566" lon="7.40188">
        <time>1970-01-01T00:00:00+00:00</time>
        <ele>70.0</ele>
      </trkpt>
      <trkpt lat="51.57562" lon="7.402235">
        <time>1970-01-01T00:00:00+00:00</time>
        <ele>70.0</ele>
      </trkpt>
      <trkpt lat="51.575621" lon="7.40254">
        <time>1970-01-01T00:00:00+00:00</time>
        <ele>69.0</ele>
      </trkpt>
      <trkpt lat="51.575577" lon="7.402855">
        <time>1970-01-01T00:00:00+00:00</time>
        <ele>69.0</ele>
      </trkpt>
      <trkpt lat="51.575272" lon="7.404044">
        <time>1970-01-01T00:00:00+00:00</time>
        <ele>69.0</ele>
      </trkpt>
      <trkpt lat="51.575215" lon="7.404198">
        <time>1970-01-01T00:00:00+00:00</time>
        <ele>69.0</ele>
      </trkpt>
      <trkpt lat="51.575096" lon="7.404361">
        <time>1970-01-01T00:00:00+00:00</time>
        <ele>69.0</ele>
      </trkpt>
      <trkpt lat="51.575272" lon="7.404678">
        <time>1970-01-01T00:00:00+00:00</time>
        <ele>68.0</ele>
      </trkpt>
      <trkpt lat="51.575619" lon="7.406237">
        <time>1970-01-01T00:00:00+00:00</time>
        <ele>70.0</ele>
      </trkpt>
      <trkpt lat="51.575868" lon="7.407546">
        <time>1970-01-01T00:00:00+00:00</time>
        <ele>67.0</ele>
      </trkpt>
      <trkpt lat="51.575921" lon="7.407864">
        <time>1970-01-01T00:00:00+00:00</time>
        <ele>68.0</ele>
      </trkpt>
      <trkpt lat="51.576342" lon="7.410474">
        <time>1970-01-01T00:00:00+00:00</time>
        <ele>72.0</ele>
      </trkpt>
      <trkpt lat="51.57673" lon="7.412938">
        <time>1970-01-01T00:00:00+00:00</time>
        <ele>75.0</ele>
      </trkpt>
      <trkpt lat="51.576875" lon="7.413396">
        <time>1970-01-01T00:00:00+00:00</time>
        <ele>77.0</ele>
      </trkpt>
      <trkpt lat="51.577032" lon="7.41377">
        <time>1970-01-01T00:00:00+00:00</time>
        <ele>79.0</ele>
      </trkpt>
      <trkpt lat="51.577301" lon="7.414171">
        <time>1970-01-01T00:00:00+00:00</time>
        <ele>78.0</ele>
      </trkpt>
      <trkpt lat="51.577779" lon="7.414896">
        <time>1970-01-01T00:00:00+00:00</time>
        <ele>68.0</ele>
      </trkpt>
      <trkpt lat="51.577809" lon="7.414943">
        <time>1970-01-01T00:00:00+00:00</time>
        <ele>69.0</ele>
      </trkpt>
      <trkpt lat="51.577885" lon="7.414795">
        <time>1970-01-01T00:00:00+00:00</time>
        <ele>70.0</ele>
      </trkpt>
      <trkpt lat="51.577884" lon="7.414761">
        <time>1970-01-01T00:00:00+00:00</time>
        <ele>70.0</ele>
      </trkpt>
      <trkpt lat="51.577808" lon="7.414702">
        <time>1970-01-01T00:00:00+00:00</time>
        <ele>69.0</ele>
      </trkpt>
      <trkpt lat="51.578136" lon="7.414131">
        <time>1970-01-01T00:00:00+00:00</time>
        <ele>68.0</ele>
      </trkpt>
      <trkpt lat="51.578452" lon="7.413646">
        <time>1970-01-01T00:00:00+00:00</time>
        <ele>67.0</ele>
      </trkpt>
      <trkpt lat="51.578479" lon="7.41361">
        <time>1970-01-01T00:00:00+00:00</time>
        <ele>67.0</ele>
      </trkpt>
      <trkpt lat="51.578479" lon="7.41361">
        <time>1970-01-01T00:00:00+00:00</time>
        <ele>67.0</ele>
      </trkpt>
      <trkpt lat="51.578452" lon="7.413646">
        <time>1970-01-01T00:00:00+00:00</time>
        <ele>67.0</ele>
      </trkpt>
      <trkpt lat="51.578136" lon="7.414131">
        <time>1970-01-01T00:00:00+00:00</time>
        <ele>68.0</ele>
      </trkpt>
      <trkpt lat="51.577808" lon="7.414702">
        <time>1970-01-01T00:00:00+00:00</time>
        <ele>69.0</ele>
      </trkpt>
      <trkpt lat="51.577884" lon="7.414761">
        <time>1970-01-01T00:00:00+00:00</time>
        <ele>70.0</ele>
      </trkpt>
      <trkpt lat="51.577885" lon="7.414795">
        <time>1970-01-01T00:00:00+00:00</time>
        <ele>70.0</ele>
      </trkpt>
      <trkpt lat="51.577809" lon="7.414943">
        <time>1970-01-01T00:00:00+00:00</time>
        <ele>69.0</ele>
      </trkpt>
      <trkpt lat="51.577779" lon="7.414896">
        <time>1970-01-01T00:00:00+00:00</time>
        <ele>68.0</ele>
      </trkpt>
      <trkpt lat="51.577301" lon="7.414171">
        <time>1970-01-01T00:00:00+00:00</time>
        <ele>78.0</ele>
      </trkpt>
      <trkpt lat="51.577032" lon="7.41377">
        <time>1970-01-01T00:00:00+00:00</time>
        <ele>79.0</ele>
      </trkpt>
      <trkpt lat="51.576875" lon="7.413396">
        <time>1970-01-01T00:00:00+00:00</time>
        <ele>77.0</ele>
      </trkpt>
      <trkpt lat="51.57673" lon="7.412938">
        <time>1970-01-01T00:00:00+00:00</time>
        <ele>75.0</ele>
      </trkpt>
      <trkpt lat="51.576342" lon="7.410474">
        <time>1970-01-01T00:00:00+00:00</time>
        <ele>72.0</ele>
      </trkpt>
      <trkpt lat="51.575921" lon="7.407864">
        <time>1970-01-01T00:00:00+00:00</time>
        <ele>68.0</ele>
      </trkpt>
      <trkpt lat="51.575868" lon="7.407546">
        <time>1970-01-01T00:00:00+00:00</time>
        <ele>67.0</ele>
      </trkpt>
      <trkpt lat="51.575619" lon="7.406237">
        <time>1970-01-01T00:00:00+00:00</time>
        <ele>70.0</ele>
      </trkpt>
      <trkpt lat="51.575272" lon="7.404678">
        <time>1970-01-01T00:00:00+00:00</time>
        <ele>68.0</ele>
      </trkpt>
      <trkpt lat="51.575096" lon="7.404361">
        <time>1970-01-01T00:00:00+00:00</time>
        <ele>69.0</ele>
      </trkpt>
      <trkpt lat="51.575215" lon="7.404198">
        <time>1970-01-01T00:00:00+00:00</time>
        <ele>69.0</ele>
      </trkpt>
      <trkpt lat="51.575272" lon="7.404044">
        <time>1970-01-01T00:00:00+00:00</time>
        <ele>69.0</ele>
      </trkpt>
      <trkpt lat="51.575577" lon="7.402855">
        <time>1970-01-01T00:00:00+00:00</time>
        <ele>69.0</ele>
      </trkpt>
      <trkpt lat="51.575621" lon="7.40254">
        <time>1970-01-01T00:00:00+00:00</time>
        <ele>69.0</ele>
      </trkpt>
      <trkpt lat="51.57562" lon="7.402235">
        <time>1970-01-01T00:00:00+00:00</time>
        <ele>70.0</ele>
      </trkpt>
      <trkpt lat="51.575566" lon="7.40188">
        <time>1970-01-01T00:00:00+00:00</time>
        <ele>70.0</ele>
      </trkpt>
      <trkpt lat="51.575305" lon="7.400933">
        <time>1970-01-01T00:00:00+00:00</time>
        <ele>68.0</ele>
      </trkpt>
      <trkpt lat="51.574888" lon="7.401216">
        <time>1970-01-01T00:00:00+00:00</time>
        <ele>65.0</ele>
      </trkpt>
      <trkpt lat="51.574847" lon="7.401142">
        <time>1970-01-01T00:00:00+00:00</time>
        <ele>64.0</ele>
      </trkpt>
      <trkpt lat="51.574784" lon="7.401036">
        <time>1970-01-01T00:00:00+00:00</time>
        <ele>64.0</ele>
      </trkpt>
      <trkpt lat="51.574761" lon="7.400866">
        <time>1970-01-01T00:00:00+00:00</time>
        <ele>64.0</ele>
      </trkpt>
      <trkpt lat="51.574743" lon="7.400526">
        <time>1970-01-01T00:00:00+00:00</time>
        <ele>64.0</ele>
      </trkpt>
      <trkpt lat="51.574626" lon="7.399978">
        <time>1970-01-01T00:00:00+00:00</time>
        <ele>64.0</ele>
      </trkpt>
      <trkpt lat="51.574552" lon="7.399701">
        <time>1970-01-01T00:00:00+00:00</time>
        <ele>64.0</ele>
      </trkpt>
      <trkpt lat="51.574458" lon="7.39947">
        <time>1970-01-01T00:00:00+00:00</time>
        <ele>65.0</ele>
      </trkpt>
      <trkpt lat="51.574399" lon="7.399394">
        <time>1970-01-01T00:00:00+00:00</time>
        <ele>66.0</ele>
      </trkpt>
      <trkpt lat="51.574231" lon="7.399251">
        <time>1970-01-01T00:00:00+00:00</time>
        <ele>67.0</ele>
      </trkpt>
      <trkpt lat="51.574199" lon="7.399177">
        <time>1970-01-01T00:00:00+00:00</time>
        <ele>67.0</ele>
      </trkpt>
      <trkpt lat="51.574125" lon="7.399052">
        <time>1970-01-01T00:00:00+00:00</time>
        <ele>67.0</ele>
      </trkpt>
      <trkpt lat="51.57411" lon="7.398866">
        <time>1970-01-01T00:00:00+00:00</time>
        <ele>67.0</ele>
      </trkpt>
    </trkseg>
  </trk>
</gpx>
